#timestamp,LO_Frequency,Hit 
1505286015.2,286046999.4,N
1505286035.0,286046999.5,N
1505286035.9,286046999.5,N
1505286055.8,286047004.4,N
1505286075.6,286047000.5,N
1505286095.4,286047004.3,N
1505286115.3,286047007.2,N
1505286135.1,286047005.7,N
1505286136.0,286047005.7,N
1505286155.8,286047005.4,N
1505286175.7,286047003.7,N
1505286195.5,286047004.4,N
1505286215.3,286047001.1,N
1505286235.1,286047002.4,N
1505286255.9,286046999.9,N
1505286275.7,286046999.8,N
1505286295.5,286046998.2,N
1505286315.4,286046995.8,N
1505286335.2,286046993.9,N
1505286355.0,286046992.5,N
1505286355.9,286046992.5,N
1505286375.8,286046992.6,N
1505286395.6,286046991.4,N
1505286415.4,286046991.6,N
1505286435.3,286046992.5,N
1505286455.1,286046992.9,N
1505286456.0,286046992.9,N
1505286475.8,286046987.1,N
1505286495.7,286046989.3,N
1505286515.5,286046991.5,N
1505286535.3,286046991.0,N
1505286555.2,286046991.4,N
1505286575.9,286046992.4,N
1505286595.7,286046990.5,N
1505286615.6,286046990.6,N
1505286635.4,286046994.8,N
1505286655.2,286046991.8,N
1505286675.0,286046996.3,N
1505286676.0,286046996.3,N
1505286695.8,286046993.9,N
1505286715.6,286046993.8,N
1505286735.4,286046990.2,N
1505286755.3,286046991.3,N
1505286775.1,286046990.6,N
1505286795.8,286046993.4,N
1505286815.7,286046997.6,N
1505286835.5,286046995.0,N
1505286855.3,286046999.1,N
1505286875.2,286046998.9,N
1505286895.9,286046999.3,N
1505286915.7,286047001.1,N
1505286935.6,286046998.7,N
1505286955.4,286046996.3,N
1505286975.2,286046997.6,N
1505286995.1,286046997.7,N
1505286996.0,286046997.7,N
1505287015.8,286046996.5,N
1505287035.6,286046995.0,N
1505287055.5,286046994.5,N
1505287075.3,286046991.7,N
1505287095.1,286046990.5,P
1505287115.9,286046996.9,N
1505287135.7,286046998.2,N
1505287155.5,286046999.3,N
1505287175.4,286047001.0,N
1505287195.2,286047000.1,N
1505287215.0,286047003.1,N
1505287215.9,286047003.1,N
1505287235.7,286047001.6,N
1505287255.6,286046999.7,N
1505287275.4,286047001.2,N
1505287295.2,286047003.4,N
1505287315.1,286047005.8,N
1505287316.0,286047005.8,N
1505287335.8,286047007.3,N
1505287355.6,286047007.2,N
1505287375.5,286047003.1,N
1505287395.3,286047002.5,N
1505287415.1,286047003.9,N
1505287435.9,286047005.2,N
1505287455.7,286047005.8,N
1505287475.5,286047003.2,N
1505287495.4,286047007.5,N
1505287515.2,286047003.9,N
1505287535.0,286047003.5,N
1505287535.9,286047003.5,N
1505287555.8,286047001.6,N
1505287575.6,286047000.9,N
1505287595.4,286046998.2,N
1505287615.2,286046997.9,N
1505287635.1,286046996.9,N
1505287636.0,286046996.9,N
1505287655.8,286046997.4,N
1505287675.6,286047002.4,N
1505287695.5,286047000.1,N
1505287715.3,286047002.0,N
1505287735.1,286047000.3,N
1505287755.9,286047001.4,N
1505287775.7,286047003.6,N
1505287795.5,286047003.3,N
1505287815.4,286047004.8,N
1505287835.2,286047005.4,N
1505287855.0,286047005.2,N
1505287855.9,286047005.2,N
1505287875.8,286046999.8,N
1505287895.6,286046998.5,N
1505287915.4,286047003.0,N
1505287935.3,286047001.7,N
1505287955.1,286047004.0,N
1505287956.0,286047004.0,N
1505287975.8,286047001.5,N
1505287995.7,286046998.9,N
1505288015.5,286046993.3,N
1505288035.3,286046993.4,N
1505288055.1,286046997.8,N
1505288075.9,286046997.7,N
1505288095.7,286046996.2,N
1505288115.5,286046999.1,N
1505288135.4,286046993.7,N
1505288155.2,286047000.6,N
1505288175.0,286046996.9,N
1505288175.9,286046996.9,N
1505288195.8,286047000.1,N
1505288215.6,286046996.5,N
1505288235.4,286046997.5,N
1505288255.3,286046995.6,N
1505288275.1,286046994.4,N
1505288276.0,286046994.4,N
1505288295.8,286046992.7,N
1505288315.7,286046995.8,N
1505288335.5,286047001.1,N
1505288355.3,286046998.5,N
1505288375.2,286047001.4,N
1505288395.9,286047000.1,N
1505288415.7,286046998.7,N
1505288435.6,286047000.4,N
1505288455.4,286047003.1,N
1505288475.2,286046999.0,N
1505288495.0,286046994.6,N
1505288496.0,286046994.6,N
1505288515.8,286047001.1,N
1505288535.6,286046997.5,N
1505288555.5,286046995.7,N
1505288575.3,286046995.0,N
1505288595.1,286046997.0,N
1505288615.8,286046998.1,N
1505288635.7,286046998.5,N
1505288655.5,286046998.6,N
1505288675.3,286046997.9,N
1505288695.2,286046996.6,N
1505288715.0,286046997.5,N
1505288715.9,286046997.5,N
1505288735.7,286046993.9,N
1505288755.6,286046992.8,N
1505288775.4,286046990.4,P
1505288795.2,286046996.3,N
1505288815.1,286046998.5,N
1505288816.0,286046998.5,N
1505288835.8,286046998.8,N
1505288855.7,286046998.2,N
1505288875.5,286046996.8,N
1505288895.3,286046995.9,N
1505288915.1,286046993.7,N
1505288935.9,286046997.8,N
1505288955.7,286046995.1,N
1505288975.5,286046995.2,N
1505288995.4,286046992.1,P
1505289015.2,286047000.8,N
1505289035.0,286046999.1,N
1505289036.0,286046999.1,N
1505289055.8,286046999.4,N
1505289075.6,286046993.8,N
1505289095.4,286046991.9,N
1505289115.3,286046990.4,N
1505289135.1,286046991.1,N
1505289155.8,286046995.7,N
1505289175.7,286046997.0,N
1505289195.5,286046995.8,N
1505289215.3,286046998.6,N
1505289235.2,286046999.1,N
1505289255.9,286046999.8,N
1505289275.7,286047001.6,N
1505289295.6,286046998.3,N
1505289315.4,286046997.1,N
1505289335.2,286046995.3,N
1505289355.1,286046992.4,N
1505289356.0,286046992.4,N
1505289375.8,286046987.4,P
1505289395.6,286046995.8,N
1505289415.5,286046996.6,N
1505289435.3,286046998.8,N
1505289455.1,286046996.9,N
1505289475.9,286047000.5,N
1505289495.7,286046999.4,N
1505289515.5,286046998.9,N
1505289535.4,286047000.5,N
1505289555.2,286047002.7,N
1505289575.0,286047002.0,N
1505289575.9,286047002.0,N
1505289595.8,286046998.1,N
